OPS 5798 DEB, 901

Orbit data source: Space-Track

OPS 5798 DEB, 901 is space debris in LEO originally from a launch on Tue, 06 Oct 1964 UTC launched from the Air Force Western Test Range (AFWTR). Debris objects in space refer to the collection of defunct objects orbiting the Earth. Examples of debris include non-operational satellites, rocket bodies, and fragments generated from explosions, collisions, or faulty payload assembly.

Loading next visibility...
Identifier
901, 1964-063D
Orbit
LEO
Country
Flag of USUS
Related business
Manufacturer
NAFI?
Mission
Spacecraft
Bus & Motor
Unknown
Mass
~20 kg wet, ~20 kg dry
Launch date (UTC)
1964-10-06 (61 years ago)
Launch vehicle
Unknown
Launch site
Air Force Western Test Range (AFWTR)
Object type
Payload
Rocket body
Debris
Shape & HBR
Unknown
Radar Cross Section
1.300 m², Large (>1 m²)

Expand to show TLE details & history
Last TLE update: 8 hours ago

TLE from 8 hours ago
0 OPS 5798 DEB
1 00901U 64063D   25258.21936610  .00000121  00000-0  16224-3 0  9991
2 00901  90.2276  69.9063 0018549 197.8812 335.6488 13.55080462  9228
Epoch: 2025-09-15T05:15Z
TLE epoch observation values (Epoch: 2025-09-15T05:15:53.231Z)
Latitude
6.48131°
Longitude
176.53307°
Altitude
1,043.422 km
Speed
7.337 km/s
True Right ascension
16h 39m 43s
True Declination
6° 26' 40"
Sunlit
Object was in daylight at epoch
Visualization orbit readout
Latitude
Unknown
Longitude
Unknown
Altitude
Unknown
Speed
Unknown
Apparent Right ascension
Unknown
Apparent Declination
Unknown
Sunlit
N/A
Visualization observer readout
Local Sidereal Time
05:36:54
Azimuth
Unknown
Elevation
Unknown
Doppler factor
Unknown
Orbital elements
Apogee altitude
1,064.447 km
Perigee altitude
1,036.888 km
Semi-major axis
7,428.804 km
Eccentricity
0.00185
Inclination
90.2276°
RAAN
69.9063°
Arg. of periapsis
197.8812°
True anomaly
335.56097°
Mean anomaly
335.6488°
Eccentric anomaly
335.6049°
Mean motion
3.38973 °/min
Orbital period
106.2 mins
BSTAR
0.00016224
Loading maneuver chart data...
Computing Atmospheric mass density...
Loading historical data...
Loading historical data...
Loading historical data...
Loading historical data...
Loading historical data...
Loading historical data...
Loading historical data...

Documentation

Showing up to 5 results
|